Retour au catalogue

HJS-9B

ActifScienceVLEO
NORAD 68832·PAYLOAD·🇨🇳 China

Lancé Apr 24, 2026 depuis Xichang Satellite Launch Center

Loading…

Prochains Passages (prochaines 24 heures)

TLE

FraisSource: Space-Track

Époque: Sep 14, 2026, 14:45 UTC

1 68832U 26091B   26257.61512767  .00011119  00000-0  53956-3 0  9996
2 68832  55.0046 350.9675 0006774 260.7730  99.2523 15.18981229 21798

Suivez HJS-9B en temps réel avec AllMySat

Download on the App Store